Cortez, CO

9:56 AM MDT on April 26, 2017 (GMT -0600)
Cortez Municipal

Weather History for KCEZ - March, 2012

Change the Weather History Date:

Monday, March 26, 2012

  Actual Average Record
Temperature  
Mean Temperature 48 °F 42 °F  
Max Temperature 64 °F 58 °F 68 °F (2004)
Min Temperature 31 °F 26 °F 17 °F (1997)
Degree Days  
Heating Degree Days 17 23  
Month to date heating degree days 653 688  
Since 1 July heating degree days 5187 5418  
Cooling Degree Days 0 0  
Month to date cooling degree days 0 0  
Year to date cooling degree days 0 0  
Moisture  
Dew Point 20 °F    
Average Humidity 39    
Maximum Humidity 64    
Minimum Humidity 14    
Precipitation  
Precipitation 0.00 in 0.04 in 0.09 in (2011)
Month to date precipitation 0.33 1.00  
Year to date precipitation 2.21 2.89  
Sea Level Pressure  
Sea Level Pressure 29.86 in    
Wind  
Wind Speed 10 mph (SW)    
Max Wind Speed 31 mph    
Max Gust Speed 40 mph    
Visibility 10 miles    
Events      
T = Trace of Precipitation, MM = Missing Value Source: NWS Daily Summary

Daily Weather History Graph

Daily Weather History Graph

Search for Another Location

Airport or City:

Trip Planner

Search our weather history database for the weather conditions in past years. The results will help you decide how hot, cold, wet, or windy it might be!

Date:

Astronomy

Mar. 26, 2012 Rise Set
Actual Time 7:08 AM MDT 7:32 PM MDT
Civil Twilight 6:42 AM MDT 7:58 PM MDT
Nautical Twilight 6:11 AM MDT 8:29 PM MDT
Astronomical Twilight 5:40 AM MDT 9:00 PM MDT
Moon 9:05 AM MDT 11:39 PM MDT
Length of Visible Light 13h 16m
Length of Day
12h 24m
Waxing Crescent, 15% of the Moon is Illuminated
Mar 26
Waxing Crescent
Mar 30
First Quarter
Apr 6
Full
Apr 13
Last Quarter
Apr 21
New

Hourly Weather History & Observations

Time (MDT) Temp. Windchill Dew Point Humidity Pressure Visibility Wind Dir Wind Speed Gust Speed Precip Events Conditions
12:53 AM 44.1 °F 41.5 °F 27.0 °F 51% 29.78 in 10.0 mi East 4.6 mph - N/A   Clear
1:53 AM 39.9 °F 37.8 °F 27.0 °F 60% 29.79 in 10.0 mi NNE 3.5 mph - N/A   Clear
2:53 AM 43.0 °F 40.3 °F 25.0 °F 49% 29.78 in 9.0 mi ENE 4.6 mph - N/A   Clear
3:53 AM 44.1 °F 41.5 °F 25.0 °F 47% 29.77 in 10.0 mi East 4.6 mph - N/A   Clear
4:53 AM 42.1 °F - 25.0 °F 51% 29.78 in 10.0 mi Calm Calm - N/A   Clear
5:53 AM 37.0 °F 34.5 °F 25.0 °F 62% 29.81 in 10.0 mi ENE 3.5 mph - N/A   Clear
6:53 AM 36.0 °F - 25.0 °F 64% 29.82 in 10.0 mi Calm Calm - N/A   Clear
7:53 AM 36.0 °F - 25.0 °F 64% 29.86 in 10.0 mi Calm Calm - N/A   Clear
8:53 AM 52.0 °F - 23.0 °F 32% 29.84 in 10.0 mi South 6.9 mph - N/A   Clear
9:53 AM 57.0 °F - 19.0 °F 23% 29.85 in 10.0 mi SW 24.2 mph 35.7 mph N/A   Clear
10:53 AM 57.0 °F - 24.1 °F 28% 29.88 in 10.0 mi WSW 19.6 mph 32.2 mph N/A   Scattered Clouds
11:53 AM 57.9 °F - 23.0 °F 26% 29.90 in 10.0 mi SW 18.4 mph 32.2 mph N/A   Mostly Cloudy
12:53 PM 60.1 °F - 23.0 °F 24% 29.87 in 10.0 mi SW 17.3 mph 32.2 mph N/A   Overcast
1:53 PM 61.0 °F - 21.0 °F 21% 29.86 in 10.0 mi SW 13.8 mph 27.6 mph N/A   Overcast
2:53 PM 62.1 °F - 19.0 °F 19% 29.85 in 10.0 mi SSW 20.7 mph 26.5 mph N/A   Overcast
3:02 PM 62.6 °F - 19.4 °F 19% 29.98 in 10.0 mi WSW 15.0 mph 26.5 mph N/A   Overcast
3:53 PM 63.0 °F - 16.0 °F 16% 29.83 in 10.0 mi WSW 18.4 mph 26.5 mph N/A   Clear
4:53 PM 62.1 °F - 12.9 °F 15% 29.84 in 10.0 mi WSW 13.8 mph 20.7 mph N/A   Clear
5:53 PM 61.0 °F - 12.0 °F 15% 29.85 in 10.0 mi WNW 15.0 mph 21.9 mph N/A   Clear
6:53 PM 57.9 °F - 12.0 °F 16% 29.88 in 10.0 mi West 8.1 mph - N/A   Clear
7:53 PM 50.0 °F - 12.9 °F 23% 29.91 in 10.0 mi West 9.2 mph - N/A   Clear
8:53 PM 43.0 °F - 16.0 °F 34% 29.91 in 10.0 mi Calm Calm - N/A   Clear
9:53 PM 37.9 °F 32.7 °F 17.1 °F 43% 29.95 in 10.0 mi ENE 6.9 mph - N/A   Clear
10:53 PM 36.0 °F 29.6 °F 17.1 °F 46% 29.98 in 10.0 mi East 8.1 mph - N/A   Clear
11:53 PM 34.0 °F 28.0 °F 18.0 °F 52% 29.99 in 10.0 mi NE 6.9 mph - N/A   Clear